Погода в Пионерском

Россия / Ханты-Мансийский автономный округ - Югра     61°11′50″N   62°51′29″E
темп.,
°C
ветер,
м/с
пор.,
м/с
влажн.,
%
обл.,
%
осадки,
мм/ч
давл.,
гПа
погр.,
м
29 июня, ср
ср2923:00+8с71793100 8.4 10051245
02:00+7с61587100 1.5 1006966
05:00+6с6158439 1.6 1007817
08:00+9с7145650 0.0 1007962
11:00+14с711415 0.0 10071572
14:00+16с693433 0.0 10061954
17:00+16с683268 0.0 10062021
20:00+14св364468 0.0 1006601
30 июня, чт
чт3023:00+9с2266100 0.0 100631
02:00+9ссв386795 0.0 1006344
05:00+8с387795 0.1 1007502
08:00+10с56585 0.0 1008916
11:00+13ссв5747100 0.0 10091816
14:00+13с675095 0.0 10101529
17:00+14ссв5848100 0.0 10111693
20:00+12с2560100 0.0 1012475
1 июля, пт
пт123:00+11сз2465100 0.0 1012120
02:00+9ссз3106899 0.0 1012287
05:00+10ссз4106779 0.0 1013373
08:00+13с59555 0.0 1013964
11:00+17ссз584481 0.0 10121855
14:00+19ссз5639100 0.0 10122077
17:00+16ссв3652100 0.0 1012542
20:00+17зюз005897 0.0 101122
2 июля, сб
сб223:00+12зюз117197 0.0 101112
02:00+11зюз237587 0.0 101058
05:00+12з247099 0.0 1010113
08:00+17сз235585 0.0 1009365
11:00+21сз234070 0.0 10081471
14:00+23сз343467 0.0 10072498
17:00+22ссз3441100 0.0 10061594
20:00+18з1253100 0.0 100674
3 июля, вс
вс323:00+13св51178100 0.1 1007518
02:00+11ссв3893100 0.8 1008496
05:00+10ссв389264 1.1 1008594
08:00+11ссв4778100 0.0 1008838
11:00+11св5669100 0.1 10091003
14:00+14св4752100 0.0 10091494
17:00+14св4752100 0.0 10091363
20:00+12св475799 0.0 10111124